Location: Home
(42.5358°N, 72.7383°W)
Time: 11:15:48
(UTC-05:00)

Courier 1B - Pass Details

Date: 08 December 2021
Orbit: 962 x 1209 km, 28.3° (Epoch: 23 January)

Event Time Altitude Azimuth Distance (km) Brightness Sun altitude
Rises 19:47:54 0° 254° (WSW) 3,964 11.5 -37.9°
Reaches altitude 10° 19:53:45 10° 218° (SW) 2,925 10.3 -38.9°
Maximum altitude 19:55:06 11° 207° (SSW) 2,864 10.1 -39.2°
Enters shadow 19:56:11 10° 198° (SSW) 2,877 10.0 -39.4°
